Terug naar catalogus

SL-23 R/B

ActiefHEO
NORAD 37835·ROCKET BODY·🇷🇺 Russia

Gelanceerd Oct 5, 2011 vanaf Baikonur Cosmodrome

Loading…

Volgende Passages (komende 24 uur)

TLE

VersSource: Space-Track

Epoch: Sep 13, 2026, 07:11 UTC

1 37835U 11056B   26256.29946707  .00000206  00000-0  00000-0 0  9992
2 37835  19.5302 310.6790 5667139 288.3816  20.0106  1.96795628107401

Volg SL-23 R/B in realtime met AllMySat

Download on the App Store